Tracking 30061 objects as of 8-Dec-2024
HD Live streaming from Space Station
objects crossing your sky now

STARLINK-30481

Track STARLINK-30481 now!
10-day predictions
STARLINK-30481 is classified as:


NORAD ID: 57899
Int'l Code: 2023-146J
Perigee: 565.4 km
Apogee: 567.1 km
Inclination: 43.0 °
Period: 95.8 minutes
Semi major axis: 6937 km
RCS: Unknown
Launch date: September 20, 2023
Source: United States (US)
Launch site: AIR FORCE EASTERN TEST RANGE (AFETR)
Your satellite tracking list
Your tracking list is empty




NASA's NSSDC Master Catalog

Two Line Element Set (TLE):
1 57899U 23146J   24343.16570236 -.00000349  00000-0 -10775-4 0  9992
2 57899  43.0028 273.9360 0001223 278.2908  81.7795 15.02528221 68189
Source of the keplerian elements: AFSPC